TimeEDT,TemperatureF,Dew PointF,Humidity,Sea Level PressureIn,VisibilityMPH,Wind Direction,Wind SpeedMPH,Gust SpeedMPH,PrecipitationIn,Events,Conditions,WindDirDegrees,DateUTC
12:56 AM,63.0,62.1,97,29.97,7.0,Calm,Calm,-,N/A,,Mostly Cloudy,0,2013-04-30 04:56:00
1:56 AM,62.1,61.0,96,29.97,7.0,Calm,Calm,-,N/A,,Mostly Cloudy,0,2013-04-30 05:56:00
2:12 AM,60.8,60.8,100,29.96,6.0,NNW,3.5,-,N/A,,Mostly Cloudy,340,2013-04-30 06:12:00
2:37 AM,60.8,60.8,100,29.96,5.0,Calm,Calm,-,N/A,,Mostly Cloudy,0,2013-04-30 06:37:00
2:45 AM,62.6,60.8,94,29.97,0.5,Calm,Calm,-,N/A,,Mostly Cloudy,0,2013-04-30 06:45:00
2:56 AM,62.1,61.0,96,29.97,0.5,Calm,Calm,-,N/A,,Mostly Cloudy,0,2013-04-30 06:56:00
3:08 AM,62.6,60.8,94,29.96,0.2,Calm,Calm,-,N/A,Fog,Fog,0,2013-04-30 07:08:00
3:56 AM,62.1,62.1,100,29.98,0.2,Calm,Calm,-,N/A,Fog,Fog,0,2013-04-30 07:56:00
4:07 AM,62.6,62.6,100,29.98,0.5,Calm,Calm,-,N/A,Fog,Fog,0,2013-04-30 08:07:00
4:43 AM,62.6,62.6,100,29.98,1.0,Calm,Calm,-,N/A,,Mist,0,2013-04-30 08:43:00
4:56 AM,62.1,61.0,96,29.98,1.0,Calm,Calm,-,N/A,,Mist,0,2013-04-30 08:56:00
5:12 AM,62.6,60.8,94,29.97,0.8,Calm,Calm,-,N/A,,Mist,0,2013-04-30 09:12:00
5:22 AM,62.6,60.8,94,29.98,0.2,West,3.5,-,N/A,Fog,Fog,280,2013-04-30 09:22:00
5:56 AM,63.0,62.1,97,29.97,0.2,WNW,3.5,-,N/A,Fog,Fog,300,2013-04-30 09:56:00
6:56 AM,62.1,61.0,96,29.98,0.2,Calm,Calm,-,N/A,Fog,Fog,0,2013-04-30 10:56:00
7:56 AM,62.1,62.1,100,30.01,0.1,WSW,3.5,-,N/A,Fog,Fog,240,2013-04-30 11:56:00
8:56 AM,64.9,64.9,100,30.02,0.1,NNW,3.5,-,N/A,Fog,Fog,330,2013-04-30 12:56:00
9:12 AM,64.4,64.4,100,30.02,0.5,Calm,Calm,-,N/A,Fog,Fog,0,2013-04-30 13:12:00
9:27 AM,66.2,64.4,94,30.02,6.0,Calm,Calm,-,N/A,,Mostly Cloudy,0,2013-04-30 13:27:00
9:32 AM,66.2,64.4,94,30.02,2.0,Calm,Calm,-,N/A,,Mostly Cloudy,0,2013-04-30 13:32:00
9:39 AM,66.2,66.2,100,30.02,3.0,NNW,4.6,-,N/A,,Mostly Cloudy,340,2013-04-30 13:39:00
9:56 AM,68.0,66.0,93,30.03,9.0,Calm,Calm,-,N/A,,Mostly Cloudy,0,2013-04-30 13:56:00
10:06 AM,71.6,66.2,83,30.02,10.0,North,3.5,-,N/A,,Mostly Cloudy,350,2013-04-30 14:06:00
10:56 AM,75.0,64.9,71,30.02,10.0,Calm,Calm,-,N/A,,Scattered Clouds,0,2013-04-30 14:56:00
11:56 AM,77.0,61.0,58,30.01,10.0,Calm,Calm,-,N/A,,Scattered Clouds,0,2013-04-30 15:56:00
12:56 PM,80.1,62.1,54,30.00,10.0,West,3.5,-,N/A,,Scattered Clouds,280,2013-04-30 16:56:00
1:56 PM,81.0,62.1,52,29.98,10.0,NNW,5.8,-,N/A,,Scattered Clouds,340,2013-04-30 17:56:00
2:56 PM,81.0,62.1,52,29.98,10.0,WNW,4.6,-,N/A,,Scattered Clouds,300,2013-04-30 18:56:00
3:56 PM,77.0,66.9,71,29.97,10.0,East,16.1,-,N/A,,Scattered Clouds,80,2013-04-30 19:56:00
4:56 PM,78.1,66.0,66,29.97,10.0,ENE,13.8,-,N/A,,Scattered Clouds,70,2013-04-30 20:56:00
5:56 PM,75.0,64.9,71,29.99,10.0,East,15.0,-,N/A,,Scattered Clouds,80,2013-04-30 21:56:00
6:56 PM,73.0,64.0,73,30.00,10.0,ENE,13.8,-,N/A,,Mostly Cloudy,70,2013-04-30 22:56:00
7:56 PM,70.0,63.0,78,30.02,10.0,East,10.4,-,N/A,,Mostly Cloudy,80,2013-04-30 23:56:00
8:56 PM,68.0,63.0,84,30.04,10.0,East,4.6,-,N/A,,Mostly Cloudy,90,2013-05-01 00:56:00
9:56 PM,68.0,64.0,87,30.05,10.0,East,6.9,-,N/A,,Mostly Cloudy,100,2013-05-01 01:56:00
10:56 PM,66.0,64.0,93,30.06,10.0,NE,5.8,-,N/A,,Mostly Cloudy,40,2013-05-01 02:56:00
11:56 PM,64.0,62.1,93,30.06,10.0,Calm,Calm,-,N/A,,Mostly Cloudy,0,2013-05-01 03:56:00